Погода в Костине

Россия / Владимирская область     55°59′15″N   39°21′29″E
темп.,
°C
ветер,
м/с
пор.,
м/с
влажн.,
%
обл.,
%
осадки,
мм/ч
давл.,
гПа
погр.,
м
10 августа, ср
ср1000:00+15с2697100 0.1 1022221
03:00+15ссв2597100 0.1 1022161
06:00+15ссв2695100 0.0 1022194
09:00+16ссв368682 0.0 1023333
12:00+21св454991 0.0 10221274
15:00+23ссв34388 0.0 10222150
18:00+22с35466 0.0 1022423
21:00+15ссв3771100 0.0 1023151
11 августа, чт
чт1100:00+14ссв2574100 0.0 1024100
03:00+12св23803 0.0 102548
06:00+12св23770 0.0 102669
09:00+19св23500 0.0 1026537
12:00+23ссв22380 0.0 10251733
15:00+24ссв22330 0.0 10241953
18:00+22ссв23460 0.0 1024181
21:00+16ссв22590 0.0 102411
12 августа, пт
пт1200:00+14с11640 0.0 102510
03:00+12с117199 0.0 102510
06:00+13сз117292 0.0 102610
09:00+20зсз12498 0.0 1025398
12:00+25сз123544 0.0 10241431
15:00+26зсз223111 0.0 10231738
18:00+24з11475 0.0 102229
21:00+17ссз12666 0.0 102311
13 августа, сб
сб1300:00+15ссз11715 0.0 102411
03:00+14ссз11760 0.0 102411
06:00+15ссз11760 0.0 102411
09:00+22ссз11510 0.0 1024383
12:00+27ссз00391 0.0 10231431
15:00+28всв11375 0.0 10221825
18:00+26в11507 0.0 102143
21:00+19в11645 0.0 102211
14 августа, вс
вс1400:00+18в116962 0.0 102211
03:00+16в227454 0.0 102125
06:00+16вюв2474100 0.0 102282
09:00+21ююв2453100 0.0 1021277
12:00+22юв1355100 0.0 1021287
15:00+22с116075 0.0 102055
18:00+23в2258100 0.0 101960
21:00+20в236497 0.0 101965